Theta_e
345 345 345 345 345 344 346 346 346 346 345 346 344 341 342 343 343 342 341 333 327 331 328 332 335 332 328 330 331 330 328 327 324
344 345 345 345 346 345 346 346 347 346 346 346 342 338 340 340 340 342 338 327 326 326 326 329 330 328 325 328 329 328 328 326 325
342 344 346 346 346 345 345 346 347 347 347 347 341 333 336 341 337 339 338 337 326 323 318 323 323 322 327 329 327 327 325 322 324
339 342 344 345 346 346 345 345 346 347 347 347 347 335 331 337 338 342 337 328 329 321 319 319 322 325 328 330 325 327 324 324 327
337 340 342 344 347 348 345 345 346 347 347 347 347 347 334 333 341 343 334 330 327 321 321 323 325 327 328 323 324 326 325 327 328
336 339 341 344 346 346 344 344 345 346 346 347 347 348 346 339 337 345 339 327 327 324 322 322 324 325 321 321 324 324 325 325 327
336 338 341 343 344 343 342 343 343 344 345 348 349 348 349 346 341 344 345 339 327 324 330 333 329 320 320 322 324 324 325 327 326
338 339 341 339 338 339 340 341 341 341 344 346 348 349 349 349 347 346 348 344 331 327 335 333 331 321 326 325 324 324 326 327 325
340 339 337 337 337 338 339 339 340 342 344 345 347 348 349 349 349 349 349 348 341 336 333 338 334 328 326 329 324 324 327 328 327
335 336 337 337 338 338 339 340 341 341 343 344 344 345 346 346 347 348 349 349 345 337 338 336 335 332 327 330 330 327 326 329 328
334 337 338 338 338 338 339 339 340 341 342 342 343 343 344 346 347 348 348 348 348 343 340 337 339 332 325 333 331 328 325 330 329
332 334 336 337 338 338 339 339 339 340 338 337 339 340 342 344 346 348 348 347 346 338 336 339 333 330 325 332 332 328 329 329 329
332 333 336 337 338 338 339 339 336 331 332 334 334 336 340 344 346 348 348 347 344 337 334 335 336 333 330 331 330 326 330 324 325
333 336 337 337 336 333 331 330 330 330 331 332 331 333 343 346 346 348 347 345 343 338 338 336 338 334 333 332 328 328 326 326 328
337 334 333 332 331 330 331 332 333 332 333 334 337 343 344 343 346 346 345 344 343 340 338 338 335 334 333 331 331 331 329 329 328
332 332 331 331 330 330 331 336 335 334 335 337 337 345 344 342 344 344 343 343 341 341 339 337 336 333 332 328 326 327 328 328 328
332 331 330 330 327 328 332 337 339 339 338 343 344 342 341 344 343 343 341 340 339 338 338 336 334 326 327 327 327 327 327 327 325
335 336 334 332 332 334 338 341 338 340 340 339 335 340 342 341 340 339 338 337 336 334 332 328 327 328 327 327 328 327 325 324 326
339 338 336 334 334 336 334 339 339 339 339 336 338 339 338 337 337 336 334 330 328 327 327 327 327 328 328 328 326 325 325 324 323
335 338 340 341 338 335 337 339 339 338 337 337 338 336 327 327 325 330 330 327 326 326 326 329 329 328 328 326 324 323 323 321 319
Wind_Speed
28 36 40 41 42 44 41 41 39 39 39 39 37 37 37 35 33 30 27 22 19 16 15 14 14 15 13 13 11 9 8 8 8
27 33 40 45 42 46 43 42 40 40 41 40 39 41 39 37 36 33 29 24 19 16 16 16 16 16 13 12 12 11 10 10 10
28 33 34 38 44 49 47 42 41 41 42 43 41 41 42 41 39 34 28 23 19 15 18 17 17 15 13 13 14 13 13 11 11
28 28 34 38 44 46 47 44 44 45 44 44 44 42 45 44 42 37 30 27 18 16 15 14 15 14 14 16 15 15 14 12 13
16 21 28 31 33 34 39 45 46 46 46 46 46 46 47 46 44 40 31 24 21 17 12 13 15 17 18 18 17 16 15 13 14
17 15 21 25 28 34 37 38 43 47 48 49 49 50 50 48 48 42 38 38 34 18 6 10 18 20 21 21 19 17 15 14 14
20 17 20 24 28 32 34 36 37 39 43 41 40 45 48 48 48 46 41 41 38 32 22 33 31 25 26 25 20 20 19 17 15
17 18 21 28 30 31 33 33 33 34 36 37 38 41 42 46 46 45 45 47 50 48 28 23 37 32 28 26 24 23 22 18 17
19 23 25 28 30 31 32 32 31 30 30 30 31 34 35 38 41 41 46 52 56 50 43 32 30 40 31 29 28 27 23 21 21
30 31 28 32 36 36 32 28 26 24 24 22 23 24 27 29 30 34 40 49 55 52 44 37 31 38 37 33 33 27 24 23 24
36 29 27 31 32 30 28 23 19 15 16 15 15 17 21 23 24 26 32 41 47 50 45 36 36 37 38 33 30 28 25 24 25
25 28 24 21 18 19 18 14 15 13 10 9 12 14 16 19 20 22 28 35 41 44 44 35 33 38 40 32 27 29 27 23 27
14 10 12 16 18 17 18 18 15 14 12 9 7 7 8 10 14 20 25 30 36 40 44 36 30 33 40 31 26 28 28 35 36
15 20 25 25 25 26 23 20 16 14 12 9 8 11 12 10 12 17 19 25 29 32 33 32 31 27 27 25 27 29 32 31 26
20 23 26 26 25 23 20 17 16 13 8 9 12 15 12 10 13 14 17 20 25 25 29 26 19 20 24 23 25 27 27 25 24
28 24 23 20 18 14 11 10 6 7 7 7 4 12 10 10 11 13 12 17 19 22 19 22 20 17 18 20 19 19 19 20 16
21 21 22 20 18 17 13 10 8 5 5 5 7 5 6 11 13 14 14 15 16 17 17 16 16 13 14 15 15 14 12 10 10
15 13 14 14 13 11 11 9 7 11 14 12 9 6 10 12 13 12 12 15 13 12 12 13 15 14 15 14 13 11 9 8 9
15 14 11 9 10 8 9 9 12 12 9 6 6 9 9 7 6 9 11 10 9 11 10 12 13 12 11 10 9 7 7 8 11
13 10 9 9 14 14 10 11 11 10 8 9 10 9 9 3 4 9 10 11 12 10 10 11 10 8 7 7 7 7 9 11 12
Wind_Direction
226 220 218 221 220 226 227 230 232 232 230 228 226 227 228 231 232 233 238 239 238 241 243 243 245 251 255 243 244 262 267 279 272
221 218 217 218 218 226 225 228 229 232 230 228 226 226 228 231 233 231 232 232 239 244 245 238 241 248 238 239 249 259 263 268 262
231 225 217 216 215 223 224 224 227 229 231 229 227 225 227 232 233 233 232 242 239 241 246 242 243 233 237 248 249 250 255 251 251
237 224 218 213 213 220 224 222 228 230 229 230 229 230 228 229 233 233 226 228 236 248 250 248 247 246 247 253 249 253 256 256 256
254 229 215 212 211 212 218 224 226 232 233 230 232 232 232 230 233 232 214 238 243 233 235 253 264 261 259 255 250 251 256 257 260
267 240 211 206 203 213 223 226 227 231 235 235 233 233 235 234 233 231 218 220 217 235 229 283 270 264 261 253 249 248 247 250 254
253 235 211 206 207 218 225 228 233 234 237 234 233 235 235 235 235 231 223 213 217 207 229 266 247 247 254 250 246 243 242 245 254
235 218 210 215 218 222 228 230 235 239 239 240 237 238 238 241 240 234 226 218 219 222 240 251 245 236 243 248 244 242 240 244 253
231 222 220 220 221 225 226 231 234 234 236 237 236 240 244 248 249 241 232 226 223 228 228 242 243 240 239 244 245 244 244 246 254
239 234 225 218 222 227 229 231 236 238 238 238 243 246 250 256 255 247 239 234 228 226 230 236 257 236 236 238 246 249 250 248 254
240 234 233 224 224 226 230 233 235 232 232 237 242 247 255 258 257 252 243 236 240 233 227 235 257 232 232 241 245 250 254 254 263
242 234 235 240 235 227 225 213 202 191 192 209 232 249 257 258 256 249 243 241 239 233 228 241 248 235 235 242 243 245 252 257 267
210 185 180 182 171 170 165 165 165 170 183 196 211 224 239 237 250 247 247 244 239 235 235 230 247 244 240 245 246 246 254 260 259
148 154 148 147 142 143 149 158 169 171 164 168 187 205 198 211 212 233 238 240 241 234 236 238 254 251 246 238 246 255 259 265 280
113 121 129 137 139 143 149 154 153 158 185 212 212 200 176 199 206 217 226 231 236 239 237 244 236 235 238 245 261 255 265 252 276
93 93 98 103 106 105 113 152 178 227 247 212 226 203 188 180 184 208 212 225 234 246 234 227 244 237 239 244 258 262 262 260 257
97 101 101 100 99 98 107 134 141 155 157 165 169 188 177 179 191 196 195 201 214 224 230 220 218 222 232 242 252 257 257 250 242
96 100 107 114 113 107 99 116 114 167 165 169 141 176 189 185 185 189 200 200 207 214 220 216 224 236 247 242 242 241 234 241 244
86 93 106 118 118 109 98 159 153 162 147 115 126 178 166 169 186 197 196 194 191 188 198 215 227 238 236 239 231 228 236 244 255
73 77 86 107 107 111 137 149 156 150 136 135 139 151 131 135 226 214 204 197 198 216 214 216 214 216 225 227 245 244 250 260 266